LogID,LogEntryDate,LogEntryTime,LogEntrySeconds,LogNotes,AFR,STFT,CurrentLTFT,IdleLTFT,CruiseLTFT,Load,O2Sensor2,IPW,AFRMAP,LoadTiming,TimingAdv,KnockSum,RPM,Baro,MAP,Boost,WGDC_Active,MAF,IDC,InVVTtarget,ExVVTtarget,InVVTactual,ExVVTactual,TPS,APP,IAT,WGDCCorr,Speed,Battery,ECT,MAT,MAPCalcs,IMAPCalcs,MAFCalcs,ChosenCalc,Custom
1,2017-02-01,07:09:44.05696,0.08594,,0,0,-4.4921875,-4.4921875,6.640625,28.125,0,2.5,14.7,28.125,28,0,1570.3125,99.5,45.2372856,-54.2627144,0,1.803936,3.271484375,12.5,-4.375,9.6875,-2.34375,15.6862745098039,14.6705882352941,5,0,26,14.22602,80,20,29.6875,0,29.6875,28.125,
2,2017-02-01,07:09:44.08748,0.11636,,0,0,-4.4921875,-4.4921875,6.640625,28.125,0,2.4,14.7,28.125,28,0,1570.3125,99.5,45.2372856,-54.2627144,0,1.803936,3.140625,12.5,-4.375,9.6875,-2.34375,15.6862745098039,14.6705882352941,5,0,26,14.22602,80,20,31.25,0,28.125,28.125,
3,2017-02-01,07:09:44.12680,0.1558,,0,0,-4.4921875,-4.4921875,6.640625,28.125,0,2.4,14.7,28.125,28,0,1570.3125,99.5,45.2372856,-54.2627144,0,1.76472,3.140625,12.5,-4.375,9.6875,-2.34375,15.6862745098039,14.6705882352941,5,0,26,14.22602,80,20,31.25,0,28.125,28.125,
4,2017-02-01,07:09:44.17670,0.20588,,0,0,-4.4921875,-4.4921875,6.640625,28.125,0,2.4,14.7,28.125,28,0,1578.125,99.5,45.2372856,-54.2627144,0,1.76472,3.15625,13.125,-5,10,-2.5,15.6862745098039,14.6705882352941,5,0,26,14.22602,80,20,31.25,0,31.25,29.6875,
5,2017-02-01,07:09:44.23249,0.26144,,0,0,-4.4921875,-4.4921875,6.640625,29.6875,0,2.6,14.7,29.6875,28,0,1585.9375,99.5,47.2330482,-52.2669518,0,1.823544,3.43619791666667,13.125,-5,10,-2.5,16.4705882352941,15.6823529411765,5,0,26,14.22602,80,20,31.25,0,31.25,29.6875,
6,2017-02-01,07:09:44.28160,0.3105,,0,0,-4.4921875,-4.4921875,6.640625,29.6875,0,2.6,14.7,29.6875,29,0,1593.75,99.5,47.2330482,-52.2669518,0,1.823544,3.453125,13.125,-5.625,13.4375,-2.96875,16.4705882352941,15.6823529411765,5,0,28,14.22602,80,20,32.8125,0,31.25,29.6875,
7,2017-02-01,07:09:44.33157,0.36059,,0,0,-4.4921875,-4.4921875,6.640625,29.6875,0,2.7,14.7,31.25,29,0,1601.5625,99.5,47.8983024,-51.6016976,0,1.823544,3.603515625,13.125,-5.625,13.4375,-2.96875,16.4705882352941,15.6823529411765,5,0,28,14.22602,80,20,32.8125,0,31.25,31.25,
8,2017-02-01,07:09:44.38211,0.4109,,0,0,-4.4921875,-4.4921875,6.640625,31.25,0,2.7,14.7,31.25,29,0,1601.5625,99.5,47.8983024,-51.6016976,0,1.823544,3.603515625,13.75,-5.625,12.96875,-3.28125,16.4705882352941,16.1882352941176,5,0,28,14.22602,80,20,32.8125,0,32.8125,31.25,
9,2017-02-01,07:09:44.43114,0.46033,,0,0,-4.4921875,-4.4921875,6.640625,31.25,0,2.7,14.7,31.25,29,0,1609.375,99.5,48.5635566,-50.9364434,0,1.784328,3.62109375,13.75,-5.625,12.96875,-3.28125,16.4705882352941,16.1882352941176,5,0,28,14.22602,80,20,32.8125,0,31.25,31.25,
10,2017-02-01,07:09:44.48118,0.51012,,0,0,-4.4921875,-4.4921875,6.640625,31.25,0,2.6,14.7,31.25,29,0,1617.1875,99.5,48.5635566,-50.9364434,0,1.784328,3.50390625,13.75,-6.25,13.4375,-3.90625,16.4705882352941,16.1882352941176,5,0,28,14.22602,80,20,32.8125,0,31.25,31.25,
11,2017-02-01,07:09:44.53123,0.5603,,0,0,-4.4921875,-4.4921875,6.640625,31.25,0,2.6,14.7,31.25,29,0,1625,99.5,49.2288108,-50.2711892,0,1.843152,3.52083333333333,13.75,-6.25,13.4375,-3.90625,16.4705882352941,16.1882352941176,6,0,28,14.22602,80,20,32.8125,0,31.25,31.25,
12,2017-02-01,07:09:44.58125,0.61006,,0,0,-4.4921875,-4.4921875,6.640625,31.25,0,2.6,14.7,31.25,29,0,1625,99.5,49.2288108,-50.2711892,0,1.843152,3.52083333333333,13.75,-6.25,13.59375,-4.53125,16.4705882352941,16.1882352941176,6,0,28,14.15269,80,20,32.8125,0,31.25,31.25,
13,2017-02-01,07:09:44.63080,0.66003,,0,0,-4.4921875,-4.4921875,6.640625,31.25,0,2.6,14.7,31.25,29,0,1640.625,99.5,50.5593192,-48.9406808,0,1.941192,3.5546875,13.75,-6.25,13.59375,-4.53125,16.4705882352941,16.1882352941176,6,0,28,14.15269,80,20,34.375,0,39.0625,32.8125,
14,2017-02-01,07:09:44.68571,0.71483,,0,0,-4.4921875,-4.4921875,6.640625,32.8125,0,3,14.7,34.375,29,0,1648.4375,99.5,50.5593192,-48.9406808,0,1.941192,4.12109375,15,-7.5,13.75,-5,18.8235294117647,19.7294117647059,5,0,28,14.15269,80,20,34.375,0,45.3125,34.375,
15,2017-02-01,07:09:44.74102,0.76995,,0,0,-4.4921875,-4.4921875,6.640625,37.5,0,3.4,14.7,37.5,30,0,1664.0625,100,59.2076238,-40.7923762,0,2.000016,4.71484375,15,-7.5,13.75,-5,18.8235294117647,19.7294117647059,5,0,28,14.22602,80,20,40.625,0,46.875,40.625,
16,2017-02-01,07:09:44.79606,0.82481,,0,0,6.640625,-4.4921875,6.640625,40.625,0,4.1,14.7,42.1875,29,0,1664.0625,100,59.2076238,-40.7923762,0,2.000016,5.685546875,18.125,-11.875,14.84375,-6.40625,18.8235294117647,19.7294117647059,5,0,28,14.22602,80,20,43.75,0,48.4375,42.1875,
17,2017-02-01,07:09:44.85039,0.87962,,0,0,6.640625,-4.4921875,6.640625,43.75,0,4,14.7,43.75,28,0,1671.875,99.5,65.1949116,-34.3050884,4,2.039232,5.57291666666667,18.125,-11.875,14.84375,-6.40625,19.6078431372549,20.7411764705882,5,0,28,14.22602,80,20,46.875,0,48.4375,45.3125,
18,2017-02-01,07:09:44.90543,0.93456,,0,0,6.640625,-4.4921875,6.640625,45.3125,0,4.2,14.7,45.3125,27,0,1695.3125,99.5,65.1949116,-34.3050884,4,2.039232,5.93359375,19.375,-13.125,16.40625,-9.21875,19.6078431372549,20.7411764705882,5,0,30,14.22602,80,20,48.4375,0,51.5625,46.875,
19,2017-02-01,07:09:44.95546,0.98448,,0,0,6.640625,-4.4921875,6.640625,46.875,0,4.3,14.7,48.4375,27,0,1703.125,99.5,69.1864368,-30.3135632,12,2.137272,6.10286458333333,19.375,-13.125,16.40625,-9.21875,19.6078431372549,20.7411764705882,5,0,30,14.22602,80,20,50,0,51.5625,48.4375,
20,2017-02-01,07:09:45.00538,1.03445,,0,0,6.640625,-4.4921875,6.640625,48.4375,0,4.4,14.7,50,26,0,1703.125,99.5,69.1864368,-30.3135632,12,2.137272,6.24479166666667,20.625,-15,17.1875,-12.03125,21.1764705882353,22.7647058823529,5,0,30,14.22602,80,20,51.5625,0,56.25,50,
21,2017-02-01,07:09:45.05532,1.08435,,0,0,6.640625,-4.4921875,6.640625,51.5625,0,4.7,14.7,53.125,26,0,1718.75,99.5,74.5084704,-24.9915296,20,2.196096,6.73177083333333,20.625,-15,17.1875,-12.03125,21.1764705882353,22.7647058823529,5,0,30,14.22602,80,20,54.6875,0,56.25,53.125,
22,2017-02-01,07:09:45.10532,1.13422,,0,0,6.640625,-4.4921875,6.640625,53.125,0,4.7,14.7,54.6875,26,0,1750,99.5,74.5084704,-24.9915296,20,2.196096,6.85416666666667,21.875,-16.25,19.53125,-13.125,21.1764705882353,22.7647058823529,5,0,30,14.22602,80,20,56.25,0,54.6875,54.6875,
23,2017-02-01,07:09:45.15544,1.18426,,0,0,6.640625,-4.4921875,6.640625,54.6875,0,4.6,14.7,54.6875,26,0,1750,99.5,75.8389788,-23.6610212,20,2.15688,6.70833333333333,21.875,-16.25,19.53125,-13.125,21.1764705882353,22.7647058823529,5,0,30,14.22602,80,20,56.25,0,56.25,54.6875,
24,2017-02-01,07:09:45.20502,1.23397,,0,0,6.640625,-4.4921875,6.640625,54.6875,0,4.7,14.7,54.6875,26,0,1742.1875,99.5,75.8389788,-23.6610212,20,2.15688,6.82356770833333,22.5,-16.25,20.625,-14.53125,21.1764705882353,22.7647058823529,5,0,30,14.22602,80,20,57.8125,0,54.6875,54.6875,
25,2017-02-01,07:09:45.25508,1.28412,,0,0,6.640625,-4.4921875,6.640625,54.6875,0,4.6,14.7,54.6875,26,0,1765.625,99.5,77.1694872,-22.3305128,20,2.15688,6.76822916666667,22.5,-16.25,20.625,-14.53125,21.1764705882353,22.7647058823529,5,0,30,14.22602,80,20,57.8125,0,53.125,54.6875,
26,2017-02-01,07:09:45.30508,1.33404,,0,0,6.640625,-4.4921875,6.640625,54.6875,0,4.6,14.7,54.6875,26,0,1789.0625,99.5,77.1694872,-22.3305128,20,2.15688,6.85807291666667,23.125,-16.875,22.03125,-15.3125,21.5686274509804,23.2705882352941,5,0,30,14.22602,80,20,57.8125,0,57.8125,56.25,
27,2017-02-01,07:09:45.35971,1.38881,,0,0,6.640625,-4.4921875,6.640625,56.25,0,4.7,14.7,56.25,26,0,1796.875,99.5,78.4999956,-21.0000044,24,2.215704,7.03776041666667,23.125,-16.875,22.03125,-15.3125,21.5686274509804,23.2705882352941,5,0,30,14.22602,80,20,59.375,0,57.8125,56.25,
28,2017-02-01,07:09:45.41052,1.43953,,0,0,6.640625,-4.4921875,6.640625,56.25,0,4.7,14.7,56.25,26,0,1796.875,99.5,78.4999956,-21.0000044,24,2.215704,7.03776041666667,23.75,-16.875,22.5,-15.9375,21.5686274509804,23.2705882352941,5,0,30,14.22602,80,20,59.375,0,54.6875,56.25,
29,2017-02-01,07:09:45.45977,1.48867,,0,0,6.640625,-4.4921875,6.640625,56.25,0,4.6,14.7,56.25,27,0,1820.3125,99.5,78.4999956,-21.0000044,20.5,2.15688,6.97786458333333,23.75,-16.875,22.5,-15.9375,21.1764705882353,23.2705882352941,5,0,30,14.22602,80,20,59.375,0,53.125,54.6875,
30,2017-02-01,07:09:45.50967,1.53869,,0,0,6.640625,-4.4921875,6.640625,56.25,0,4.5,14.7,56.25,27,0,1835.9375,99.5,78.4999956,-21.0000044,20.5,2.15688,6.884765625,23.75,-16.875,22.96875,-16.09375,21.1764705882353,23.2705882352941,5,0,30,14.22602,80,20,59.375,0,56.25,54.6875,
31,2017-02-01,07:09:45.56041,1.58922,,0,0,6.640625,-4.4921875,6.640625,56.25,0,4.6,14.7,56.25,27,0,1851.5625,99.5,76.504233,-22.995767,20,2.215704,7.09765625,23.75,-16.875,22.96875,-16.09375,21.1764705882353,23.2705882352941,5,0,30,14.22602,80,20,59.375,0,54.6875,56.25,
32,2017-02-01,07:09:45.60979,1.63863,,0,0,6.640625,-4.4921875,6.640625,56.25,0,4.6,14.7,56.25,27,0,1851.5625,99.5,76.504233,-22.995767,20,2.215704,7.09765625,24.375,-17.5,23.28125,-16.40625,21.5686274509804,23.2705882352941,5,0,30,14.22602,80,20,59.375,0,57.8125,56.25,
33,2017-02-01,07:09:45.65946,1.68841,,0,0,6.640625,-4.4921875,6.640625,56.25,0,4.6,14.7,56.25,27,0,1859.375,100,77.1694872,-22.8305128,24,2.15688,7.12760416666667,24.375,-17.5,23.28125,-16.40625,21.5686274509804,23.2705882352941,5,0,32,14.22602,80,20,59.375,0,56.25,56.25,
34,2017-02-01,07:09:45.71017,1.73931,,0,0,6.640625,-4.4921875,6.640625,56.25,0,4.6,14.7,56.25,27,0,1890.625,100,77.1694872,-22.8305128,24,2.15688,7.24739583333333,25,-17.5,23.75,-16.5625,21.5686274509804,23.2705882352941,5,0,32,14.22602,80,20,60.9375,0,54.6875,56.25,
35,2017-02-01,07:09:45.75973,1.78863,,0,0,6.640625,-4.4921875,6.640625,56.25,0,4.6,14.7,56.25,27,0,1898.4375,100,76.504233,-23.495767,24,2.215704,7.27734375,25,-17.5,23.75,-16.5625,21.5686274509804,23.2705882352941,5,0,32,14.22602,80,20,59.375,0,57.8125,56.25,
36,2017-02-01,07:09:45.80941,1.83819,,0,0,6.640625,-4.4921875,6.640625,56.25,0,4.6,14.7,56.25,28,0,1906.25,100,76.504233,-23.495767,24,2.215704,7.30729166666667,25,-18.125,24.0625,-16.71875,21.5686274509804,23.2705882352941,5,0,32,14.29935,80,20,60.9375,0,57.8125,56.25,
37,2017-02-01,07:09:45.85995,1.88907,,0,0,6.640625,-4.4921875,6.640625,56.25,0,4.5,14.7,56.25,28,0,1921.875,99.5,77.1694872,-22.3305128,24,2.215704,7.20703125,25,-18.125,24.0625,-16.71875,21.5686274509804,23.2705882352941,5,0,32,14.29935,80,20,60.9375,0,56.25,56.25,
38,2017-02-01,07:09:45.90900,1.93818,,0,0,6.640625,-4.4921875,6.640625,56.25,0,4.5,14.7,56.25,28,0,1937.5,99.5,77.1694872,-22.3305128,24,2.215704,7.265625,25.625,-18.125,24.53125,-17.03125,21.9607843137255,23.7764705882353,5,0,32,14.29935,80,20,60.9375,0,57.8125,56.25,
39,2017-02-01,07:09:45.95902,1.98779,,0,0,6.640625,-4.4921875,6.640625,56.25,0,4.7,14.7,57.8125,28,0,1953.125,99.5,77.8347414,-21.6652586,28,2.215704,7.64973958333333,25.625,-18.125,24.53125,-17.03125,21.9607843137255,23.7764705882353,5,0,32,14.22602,80,20,62.5,0,59.375,57.8125,
40,2017-02-01,07:09:46.00885,2.03807,,0,0,6.640625,-4.4921875,6.640625,57.8125,0,4.7,14.7,57.8125,28,0,1968.75,99.5,77.8347414,-21.6652586,28,2.215704,7.7109375,26.25,-19.375,25.46875,-17.1875,21.9607843137255,23.7764705882353,5,0,32,14.22602,80,20,62.5,0,59.375,57.8125,
41,2017-02-01,07:09:46.05854,2.08767,,0,0,6.640625,-4.4921875,6.640625,57.8125,0,4.7,14.7,57.8125,28,0,1976.5625,99.5,80.4957582,-19.0042418,36,2.333352,7.74153645833333,26.25,-19.375,25.46875,-17.1875,22.7450980392157,24.7882352941176,5,0,32,14.22602,80,20,64.0625,0,67.1875,60.9375,
42,2017-02-01,07:09:46.10864,2.13771,,0,0,6.640625,-4.4921875,6.640625,60.9375,0,5.1,14.7,60.9375,28,0,1992.1875,99.5,80.4957582,-19.0042418,36,2.333352,8.466796875,28.125,-20,25.625,-17.96875,22.7450980392157,24.7882352941176,5,0,32,14.29935,80,20,65.625,0,62.5,62.5,
43,2017-02-01,07:09:46.15904,2.18816,,0,0,6.640625,-4.4921875,6.640625,62.5,0,4.8,14.7,62.5,27,0,2015.625,99.5,82.4915208,-17.0084792,36,2.274528,8.0625,28.125,-20,25.625,-17.96875,22.7450980392157,24.7882352941176,5,0,32,14.29935,80,20,67.1875,0,64.0625,62.5,
44,2017-02-01,07:09:46.20842,2.23745,,0,0,6.640625,-4.4921875,6.640625,62.5,0,4.8,14.7,62.5,27,0,2023.4375,99.5,82.4915208,-17.0084792,36,2.274528,8.09375,28.75,-20,27.1875,-18.59375,22.7450980392157,24.2823529411765,5,0,32,14.29935,80,20,67.1875,0,62.5,62.5,
45,2017-02-01,07:09:46.25824,2.28738,,0,0,6.640625,-4.4921875,6.640625,62.5,0,4.7,14.7,62.5,27,0,2023.4375,99.5,83.156775,-16.343225,32,2.294136,7.92513020833333,28.75,-20,27.1875,-18.59375,22.7450980392157,24.2823529411765,5,0,32,14.22602,80,20,67.1875,0,60.9375,62.5,
46,2017-02-01,07:09:46.30851,2.33728,,0,0,6.640625,-4.4921875,6.640625,62.5,0,4.4,14.7,62.5,27,0,2046.875,99.5,83.156775,-16.343225,32,2.294136,7.50520833333333,28.125,-20,27.96875,-19.21875,22.7450980392157,24.2823529411765,5,0,32,14.22602,80,20,67.1875,0,65.625,62.5,
47,2017-02-01,07:09:46.35819,2.38722,,0,0,6.640625,-4.4921875,6.640625,62.5,0,4.5,14.7,62.5,27,0,2070.3125,99.5,83.8220292,-15.6779708,36,2.294136,7.763671875,28.125,-20,27.96875,-19.21875,22.7450980392157,24.2823529411765,5,0,32,14.22602,80,20,68.75,0,65.625,62.5,
48,2017-02-01,07:09:46.40804,2.43711,,0,0,6.640625,-4.4921875,6.640625,64.0625,0,4.5,14.7,64.0625,27,0,2085.9375,99.5,83.8220292,-15.6779708,36,2.294136,7.822265625,28.75,-20,28.4375,-19.375,22.7450980392157,24.2823529411765,5,0,36,14.29935,80,20,68.75,0,62.5,62.5,
49,2017-02-01,07:09:46.45801,2.48705,,0,0,6.640625,-4.4921875,6.640625,62.5,0,4.4,14.7,62.5,27,0,2085.9375,99.5,83.8220292,-15.6779708,36,2.35296,7.6484375,28.75,-20,28.4375,-19.375,22.7450980392157,24.2823529411765,5,0,36,14.29935,80,20,68.75,0,62.5,62.5,
50,2017-02-01,07:09:46.50800,2.53704,,0,0,6.640625,-4.4921875,6.640625,62.5,0,4.5,14.7,62.5,27,0,2101.5625,99.5,83.8220292,-15.6779708,36,2.35296,7.880859375,28.75,-20,28.4375,-19.375,22.7450980392157,24.2823529411765,5,0,36,14.29935,80,20,68.75,0,59.375,62.5,
51,2017-02-01,07:09:46.55796,2.58687,,0,0,6.640625,-4.4921875,6.640625,62.5,0,4.4,14.7,62.5,28,0,2132.8125,99.5,83.8220292,-15.6779708,36,2.313744,7.8203125,28.75,-20,28.4375,-19.375,22.7450980392157,24.2823529411765,5,0,36,14.22602,80,20,68.75,0,65.625,62.5,
52,2017-02-01,07:09:46.60801,2.63682,,0,0,6.640625,-4.4921875,6.640625,64.0625,0,4.5,14.7,64.0625,28,0,2148.4375,99.5,83.8220292,-15.6779708,36,2.313744,8.056640625,28.75,-20,28.75,-19.375,22.7450980392157,24.2823529411765,5,0,36,14.22602,80,20,68.75,0,65.625,64.0625,
53,2017-02-01,07:09:46.65777,2.68674,,0,0,6.640625,-4.4921875,6.640625,64.0625,0,4.6,14.7,64.0625,28,0,2140.625,99.5,84.4872834,-15.0127166,36,2.35296,8.20572916666667,28.75,-20,28.75,-19.375,22.7450980392157,24.2823529411765,5,0,36,14.22602,80,20,70.3125,0,64.0625,64.0625,
54,2017-02-01,07:09:46.70756,2.73654,,0,0,6.640625,-4.4921875,6.640625,64.0625,0,4.6,14.7,64.0625,27,0,2164.0625,99.5,84.4872834,-15.0127166,36,2.35296,8.29557291666667,28.75,-20,28.90625,-19.375,22.7450980392157,24.2823529411765,5,0,36,14.22602,80,20,70.3125,0,62.5,64.0625,
55,2017-02-01,07:09:46.75758,2.78652,,0,0,6.640625,-4.4921875,6.640625,64.0625,0,4.5,14.7,64.0625,28,0,2195.3125,99.5,83.8220292,-15.6779708,36,2.333352,8.232421875,28.75,-20,28.90625,-19.375,22.7450980392157,24.2823529411765,5,0,36,14.22602,80,20,68.75,0,64.0625,64.0625,
56,2017-02-01,07:09:46.80762,2.83647,,0,0,6.640625,-4.4921875,6.640625,64.0625,0,4.5,14.7,64.0625,28,0,2203.125,99.5,83.8220292,-15.6779708,36,2.333352,8.26171875,28.75,-20,28.90625,-19.53125,22.7450980392157,24.2823529411765,5,0,36,14.22602,80,20,68.75,0,62.5,64.0625,
57,2017-02-01,07:09:46.85750,2.88633,,0,0,6.640625,-4.4921875,6.640625,64.0625,0,4.5,14.7,64.0625,28,0,2203.125,99.5,85.1525376,-14.3474624,36,2.372568,8.26171875,28.75,-20,28.90625,-19.53125,22.7450980392157,24.2823529411765,5,0,36,14.22602,80,20,70.3125,0,64.0625,64.0625,
58,2017-02-01,07:09:46.90711,2.9363,,0,0,6.640625,-4.4921875,6.640625,64.0625,0,4.5,14.7,64.0625,27,0,2226.5625,99.5,85.1525376,-14.3474624,36,2.372568,8.349609375,28.75,-20,29.21875,-19.375,22.7450980392157,24.2823529411765,5,0,36,14.22602,80,20,70.3125,0,65.625,64.0625,
59,2017-02-01,07:09:46.95739,2.98622,,0,0,6.640625,-4.4921875,6.640625,64.0625,0,4.5,14.7,64.0625,27,0,2257.8125,99.5,83.8220292,-15.6779708,36,2.372568,8.466796875,28.75,-20,29.21875,-19.375,22.7450980392157,24.2823529411765,5,0,36,14.22602,80,20,70.3125,0,65.625,64.0625,
60,2017-02-01,07:09:47.00751,3.03666,,0,0,6.640625,-4.4921875,6.640625,64.0625,0,4.6,14.7,64.0625,27,0,2257.8125,99.5,83.8220292,-15.6779708,36,2.372568,8.65494791666667,28.75,-20,29.21875,-19.53125,22.7450980392157,24.2823529411765,5,0,40,14.22602,80,20,70.3125,0,62.5,64.0625,
61,2017-02-01,07:09:47.05704,3.08606,,0,0,6.640625,-4.4921875,6.640625,64.0625,0,4.5,14.7,64.0625,27,0,2265.625,99.5,84.4872834,-15.0127166,36,2.411784,8.49609375,28.75,-20,29.21875,-19.53125,22.7450980392157,24.2823529411765,5,0,40,14.22602,80,20,70.3125,0,64.0625,64.0625,
62,2017-02-01,07:09:47.10695,3.13602,,0,0,6.640625,-4.4921875,6.640625,64.0625,0,4.6,14.7,64.0625,27,0,2281.25,99.5,84.4872834,-15.0127166,36,2.411784,8.74479166666667,28.75,-20,29.53125,-19.53125,22.7450980392157,24.2823529411765,5,0,40,14.22602,80,20,70.3125,0,60.9375,64.0625,
63,2017-02-01,07:09:47.15761,3.18643,,0,0,6.640625,-4.4921875,6.640625,64.0625,0,4.5,14.7,64.0625,27,0,2304.6875,99.5,83.156775,-16.343225,36,2.392176,8.642578125,28.75,-20,29.53125,-19.53125,22.7450980392157,24.2823529411765,5,0,40,14.22602,80,19,70.3125,0,62.5,64.0625,
64,2017-02-01,07:09:47.20679,3.23582,,0,0,6.640625,-4.4921875,6.640625,64.0625,0,4.5,14.7,64.0625,28,0,2312.5,99.5,83.156775,-16.343225,36,2.392176,8.671875,28.75,-20,29.0625,-19.6875,22.7450980392157,24.2823529411765,5,0,40,14.22602,80,19,68.75,0,64.0625,64.0625,
65,2017-02-01,07:09:47.25696,3.28581,,0,0,6.640625,-4.4921875,6.640625,64.0625,0,4.5,14.7,64.0625,28,0,2320.3125,100,83.8220292,-16.1779708,36,2.333352,8.701171875,28.75,-20,29.0625,-19.6875,22.7450980392157,24.2823529411765,5,0,40,14.22602,80,19,70.3125,0,64.0625,64.0625,
66,2017-02-01,07:09:47.30720,3.33632,,0,0,6.640625,-4.4921875,6.640625,64.0625,0,4.5,14.7,64.0625,28,0,2351.5625,100,83.8220292,-16.1779708,36,2.333352,8.818359375,28.75,-20,29.375,-19.6875,22.7450980392157,24.2823529411765,5,0,40,14.22602,80,19,70.3125,0,64.0625,64.0625,
67,2017-02-01,07:09:47.35739,3.38614,,0,0,6.640625,-4.4921875,6.640625,64.0625,0,4.5,14.7,64.0625,28,0,2375,99.5,83.8220292,-15.6779708,36,2.392176,8.90625,28.75,-20,29.375,-19.6875,22.7450980392157,24.2823529411765,5,0,40,14.22602,80,19,70.3125,0,62.5,64.0625,
68,2017-02-01,07:09:47.40656,3.43563,,0,0,6.640625,-4.4921875,6.640625,64.0625,0,4.5,14.7,64.0625,28,0,2367.1875,99.5,83.8220292,-15.6779708,36,2.392176,8.876953125,28.75,-20,29.21875,-19.6875,22.7450980392157,24.2823529411765,5,0,40,14.22602,80,19,68.75,0,64.0625,64.0625,
69,2017-02-01,07:09:47.45696,3.48608,,0,0,6.640625,-4.4921875,6.640625,64.0625,0,4.5,14.7,64.0625,29,0,2382.8125,99.5,83.156775,-16.343225,36,2.431392,8.935546875,28.75,-20,29.21875,-19.6875,22.7450980392157,24.2823529411765,5,0,40,14.22602,80,19,68.75,0,64.0625,64.0625,
70,2017-02-01,07:09:47.50640,3.53543,,0,0,6.640625,-4.4921875,6.640625,64.0625,0,4.5,14.7,64.0625,29,0,2421.875,99.5,83.156775,-16.343225,36,2.431392,9.08203125,28.75,-20,29.375,-19.84375,22.7450980392157,24.2823529411765,5,0,40,14.22602,80,19,68.75,0,62.5,64.0625,
71,2017-02-01,07:09:47.55625,3.58531,,0,0,6.640625,-4.4921875,6.640625,64.0625,0,4.5,14.7,64.0625,29,0,2421.875,99.5,83.156775,-16.343225,36,2.451,9.08203125,28.75,-20,29.375,-19.84375,22.7450980392157,24.2823529411765,5,0,40,14.22602,80,19,68.75,0,64.0625,64.0625,
72,2017-02-01,07:09:47.60721,3.63643,,0,0,6.640625,-4.4921875,6.640625,64.0625,0,4.5,14.7,64.0625,28,0,2429.6875,99.5,83.156775,-16.343225,36,2.451,9.111328125,28.75,-20,29.375,-19.53125,22.7450980392157,24.2823529411765,5,0,40,14.22602,80,19,68.75,0,64.0625,64.0625,
73,2017-02-01,07:09:47.65628,3.6851,,0,0,6.640625,-4.4921875,6.640625,64.0625,0,4.5,14.7,64.0625,29,0,2460.9375,99.5,82.4915208,-17.0084792,36,2.411784,9.228515625,28.75,-20,29.375,-19.53125,22.7450980392157,24.2823529411765,5,0,40,14.22602,80,19,68.75,0,62.5,64.0625,
74,2017-02-01,07:09:47.70630,3.73512,,0,0,6.640625,-4.4921875,6.640625,64.0625,0,4.5,14.7,64.0625,29,0,2468.75,99.5,82.4915208,-17.0084792,36,2.411784,9.2578125,28.75,-20,29.0625,-19.84375,22.7450980392157,24.2823529411765,5,0,40,14.22602,80,19,68.75,0,64.0625,64.0625,
75,2017-02-01,07:09:47.75585,3.78487,,0,0,6.640625,-4.4921875,6.640625,64.0625,0,4.5,14.7,64.0625,29,0,2476.5625,99.5,81.8262666,-17.6737334,36,2.509824,9.287109375,28.75,-20,29.0625,-19.84375,22.7450980392157,24.2823529411765,5,0,44,14.22602,80,19,68.75,0,60.9375,64.0625,
76,2017-02-01,07:09:47.80587,3.83485,,0,0,6.640625,-4.4921875,6.640625,64.0625,0,4.4,14.7,64.0625,29,0,2500,99.5,81.8262666,-17.6737334,36,2.509824,9.16666666666667,28.75,-20,29.375,-19.84375,22.7450980392157,24.2823529411765,5,0,44,14.22602,80,19,68.75,0,65.625,64.0625,
77,2017-02-01,07:09:47.85574,3.88468,,0,0,6.640625,-4.4921875,6.640625,64.0625,0,4.5,14.7,64.0625,29,0,2507.8125,99.5,81.8262666,-17.6737334,34,2.490216,9.404296875,28.75,-20,29.375,-19.84375,22.7450980392157,24.2823529411765,5,0,44,14.22602,80,19,68.75,0,64.0625,64.0625,
78,2017-02-01,07:09:47.90551,3.93472,,0,0,6.640625,-4.4921875,6.640625,64.0625,0,4.4,14.7,64.0625,29,0,2523.4375,99.5,81.8262666,-17.6737334,34,2.490216,9.25260416666667,28.75,-20,29.0625,-19.53125,22.7450980392157,24.2823529411765,5,0,44,14.22602,80,19,68.75,0,64.0625,62.5,
79,2017-02-01,07:09:47.95558,3.98461,,0,0,6.640625,-4.4921875,6.640625,64.0625,0,4.6,14.7,64.0625,29,0,2531.25,99.5,81.8262666,-17.6737334,31,2.509824,9.703125,28.75,-20,29.0625,-19.53125,22.7450980392157,24.2823529411765,5,0,44,14.22602,80,19,68.75,0,60.9375,64.0625,
80,2017-02-01,07:09:48.00556,4.03462,,0,0,6.640625,-4.4921875,6.640625,64.0625,0,4.5,14.7,64.0625,29,0,2546.875,99.5,81.8262666,-17.6737334,31,2.509824,9.55078125,28.75,-20,29.375,-19.84375,22.7450980392157,24.2823529411765,5,0,44,14.22602,80,19,68.75,0,64.0625,64.0625,
81,2017-02-01,07:09:48.05559,4.08451,,0,0,6.640625,-4.4921875,6.640625,64.0625,0,4.5,14.7,64.0625,29,0,2570.3125,99.5,81.1610124,-18.3389876,26,2.392176,9.638671875,28.75,-20,29.375,-19.84375,22.7450980392157,24.2823529411765,5,0,44,14.22602,80,19,68.75,0,60.9375,62.5,
82,2017-02-01,07:09:48.10533,4.13432,,0,0,6.640625,-4.4921875,6.640625,64.0625,0,4.5,14.7,64.0625,29,0,2578.125,99.5,81.1610124,-18.3389876,26,2.392176,9.66796875,28.75,-20,29.375,-19.84375,22.7450980392157,24.2823529411765,5,0,44,14.22602,80,19,67.1875,0,60.9375,62.5,
83,2017-02-01,07:09:48.15529,4.18431,,0,0,6.640625,-4.4921875,6.640625,62.5,0,4.4,14.7,62.5,29,0,2593.75,99.5,80.4957582,-19.0042418,22,2.470608,9.51041666666667,28.75,-20,29.375,-19.84375,22.7450980392157,24.2823529411765,5,0,44,14.22602,80,19,68.75,0,64.0625,62.5,
84,2017-02-01,07:09:48.20528,4.23441,,0,0,6.640625,-4.4921875,6.640625,62.5,0,4.4,14.7,62.5,29,0,2601.5625,99.5,80.4957582,-19.0042418,22,2.470608,9.5390625,28.125,-20,29.21875,-20,22.7450980392157,24.2823529411765,5,0,44,14.22602,80,19,67.1875,0,64.0625,62.5,
85,2017-02-01,07:09:48.25518,4.28428,,0,0,6.640625,-4.4921875,6.640625,62.5,0,4.4,14.7,62.5,29,0,2617.1875,99.5,81.1610124,-18.3389876,18,2.509824,9.59635416666667,28.125,-20,29.21875,-20,22.7450980392157,24.2823529411765,5,0,44,14.22602,80,19,67.1875,0,62.5,62.5,
86,2017-02-01,07:09:48.30490,4.33397,,0,0,6.640625,-4.4921875,6.640625,62.5,0,4.4,14.7,62.5,30,0,2640.625,99.5,81.1610124,-18.3389876,18,2.509824,9.68229166666667,28.125,-20,28.75,-20,22.7450980392157,24.2823529411765,5,0,44,14.22602,80,19,67.1875,0,62.5,62.5,
87,2017-02-01,07:09:48.35497,4.38395,,0,0,6.640625,-4.4921875,6.640625,62.5,0,4.4,14.7,62.5,30,0,2648.4375,99.5,80.4957582,-19.0042418,14.5,2.470608,9.7109375,28.125,-20,28.75,-20,22.7450980392157,24.2823529411765,5,0,44,14.22602,80,19,67.1875,0,60.9375,62.5,